Вернуться в каталог

STARLINK-31317

АктивенСвязьVLEO
NORAD 58931·PAYLOAD·🇺🇸 United States

Запущен Feb 10, 2024 с Vandenberg Space Force Base

Loading…

Ближайшие Пролёты (ближайшие 24 часа)

TLE

СвежийSource: CelesTrak SupGP

Эпоха: Sep 15, 2026, 02:31 UTC

1 58931C 24027A   26258.10534722  .00010979  00000+0  32440-3 0  2587
2 58931  53.1564 146.7409 0001274  80.4145 221.1350 15.34381867    10

Отслеживайте STARLINK-31317 в реальном времени с AllMySat

Download on the App Store